Location: Tarrant
(32.8168°N, 97.0772°W)
Time: 06:02:53
(UTC+00:00)

SL-16 R/B - Pass Details

Date: 06 October 2022
Orbit: 842 x 846 km, 71.0° (Epoch: 06 December)

Event Time Altitude Azimuth Distance (km) Brightness Sun altitude
Rises 11:57:16 0° 327° (NNW) 3,406 5.0 -6.9°
Reaches altitude 10° 11:59:57 10° 317° (NW) 2,467 4.2 -6.3°
Maximum altitude 12:04:50 31° 257° (WSW) 1,451 2.9 -5.3°
Drops below altitude 10° 12:09:43 10° 197° (SSW) 2,457 4.5 -4.2°
Sets 12:12:24 0° 187° (S) 3,388 5.3 -3.7°
